GFSNIL_prec_cloud_132.txt.gz
Cloud_Cover
100 2 0 0 28 2 42 20 30 5 5 5 3 0 0 0 0 0 0 0 2 5
5 5 75 58 1 0 16 73 18 1 0 0 0 0 0 0 0 1 0 0 0 0
13 24 98 52 4 28 5 0 46 4 7 1 0 0 0 0 6 1 0 0 8 0
1 4 82 83 31 100 26 1 0 0 0 2 3 1 0 0 8 11 2 0 0 0
0 0 5 5 4 10 100 76 76 9 9 0 4 6 35 100 32 6 33 25 9 4
11 6 0 3 5 0 0 1 32 87 96 8 39 1 5 5 6 13 23 25 30 7
84 99 100 32 76 85 24 3 3 3 5 66 6 31 10 8 8 1 16 28 37 25
83 84 8 44 74 100 100 100 93 23 4 5 6 5 5 5 5 7 13 16 16 26
80 36 70 7 52 99 100 100 100 100 100 100 72 100 59 16 5 63 100 56 30 29
62 8 54 37 61 18 20 98 100 29 90 100 100 100 100 100 47 16 75 50 99 90
95 88 100 92 100 100 94 64 99 53 33 42 69 83 100 100 100 92 100 82 78 86
100 100 90 48 99 100 100 95 96 100 100 85 62 36 78 78 100 100 100 100 84 63
100 100 100 75 100 100 57 94 100 100 99 71 85 100 100 92 85 93 77 95 75 80
100 100 98 100 95 98 96 90 100 100 100 100 99 100 99 100 100 100 100 97 76 73

GFSNIL_prec_cloud_138.txt.gz
Cloud_Cover
0 12 47 0 0 7 53 99 14 29 0 0 0 0 0 0 0 0 0 0 0 5
0 0 23 2 0 7 64 89 19 2 1 0 0 100 0 0 0 0 60 0 0 0
0 0 0 0 2 40 27 28 25 22 91 29 2 66 47 0 0 4 0 0 0 0
13 4 11 99 100 0 0 0 0 0 90 0 0 0 21 0 0 0 21 0 0 0
7 36 5 5 1 0 0 0 0 0 2 0 0 0 0 0 0 0 0 0 0 0
5 92 10 54 62 6 1 0 0 0 0 0 0 0 0 0 0 0 0 0 79 3
0 1 1 40 67 100 96 100 42 4 3 2 2 1 5 3 0 5 0 2 0 78
0 0 0 4 5 19 100 79 100 100 98 66 92 66 14 70 5 5 10 5 4 2
1 0 2 5 0 0 0 5 5 62 35 100 100 100 100 11 72 89 100 87 6 5
16 5 5 5 3 2 5 1 5 5 30 66 4 4 20 24 5 36 4 5 5 88
7 3 5 90 100 99 100 100 100 92 99 100 95 72 63 51 5 17 26 0 1 5
8 0 2 5 1 1 8 13 5 30 100 100 100 100 100 100 100 21 5 5 5 5
44 52 59 13 10 14 64 62 12 21 84 100 100 100 100 100 100 100 47 92 17 10
83 100 100 100 100 100 100 37 93 100 100 100 100 100 100 100 100 100 80 56 96 100

GFSNIL_prec_cloud_141.txt.gz
Cloud_Cover
0 0 4 0 18 3 16 37 50 3 10 2 1 4 7 16 91 5 9 15 14 98
0 0 2 0 0 0 2 81 22 5 89 0 0 0 0 0 17 0 5 2 26 100
0 0 25 0 0 0 0 89 25 29 0 0 0 0 0 0 0 0 0 3 5 5
0 2 2 0 0 0 0 0 19 2 0 0 0 0 0 0 0 0 0 5 5 1
5 53 82 8 65 3 0 0 0 0 0 5 0 0 0 0 0 0 0 0 0 0
5 5 5 4 0 0 0 0 0 0 6 4 1 0 0 0 0 0 0 0 0 0
4 5 2 3 5 57 62 48 4 0 2 0 0 0 0 0 0 0 0 0 0 0
0 0 0 0 0 67 13 100 100 96 66 6 5 23 73 4 5 5 5 0 0 2
18 0 1 5 5 0 4 53 100 97 100 100 100 62 44 98 62 80 10 64 16 75
99 77 24 5 19 6 4 92 67 100 94 77 21 6 5 6 77 89 6 30 64 86
100 100 100 69 10 5 22 5 26 26 12 64 95 100 100 100 100 98 23 65 94 100
100 100 100 92 6 4 2 3 15 4 61 97 48 85 100 100 100 59 49 52 5 5
100 100 100 100 100 100 100 100 100 100 100 100 100 100 100 100 100 100 95 100 52 49
100 100 100 100 100 90 52 91 100 100 100 100 100 100 100 100 100 100 100 100 100 100

GFSNIL_prec_cloud_147.txt.gz
Cloud_Cover
9 1 5 5 4 7 5 42 70 1 4 5 0 5 5 37 77 5 13 6 8 100
5 3 5 3 2 0 0 4 5 4 0 2 0 0 5 7 10 25 53 5 15 99
5 51 5 1 1 0 2 3 5 1 0 0 2 0 1 4 3 5 7 5 26 92
0 40 100 50 4 0 1 4 0 0 0 0 0 0 0 0 0 1 4 5 2 41
0 0 1 1 5 0 0 0 0 4 1 1 0 3 0 0 0 0 4 0 1 5
2 0 0 0 0 0 0 0 0 0 0 0 0 0 2 4 4 0 0 0 0 0
5 31 1 0 0 0 0 0 0 0 0 0 0 0 3 0 0 0 0 0 0 0
34 5 9 5 0 0 0 0 0 0 0 0 0 0 2 0 0 2 0 0 0 0
97 99 13 5 5 3 0 0 0 0 0 0 0 0 0 0 0 0 0 3 15 5
100 97 91 87 14 27 35 68 54 24 17 5 6 8 9 91 100 8 6 50 100 100
100 100 100 100 78 49 99 100 100 100 100 100 99 100 97 88 96 100 100 98 66 98
100 100 100 100 80 18 81 92 79 54 100 100 100 100 100 100 100 100 97 98 58 74
100 100 100 100 100 100 100 100 100 100 100 100 100 100 100 100 100 100 100 100 100 72
100 100 100 100 100 100 100 100 100 100 100 100 100 100 100 100 100 100 100 100 100 100